SCOT35 YBOK-YBOK

Flight info

Callsign SCOT35
Flight time 0h 16m
Altitude 6500
Route OK DCT YTWB DCT OK
Aircraft EC35/L-SDFGRY/C

Departure

Time 2026-04-15 07:17
Airport Oakey Army Aviation Centre (YBOK)

Arrival

Time 2026-04-15 07:34
Airport Oakey Army Aviation Centre (YBOK)
Time Latitude Longitude Altitude Speed Heading
2026-04-15 07:09 -27.41367 151.73479 1342 ft 0 kts 146°
2026-04-15 07:14 -27.41373 151.73486 1348 ft 1 kts 136°
2026-04-15 07:14 -27.41359 151.73486 1353 ft 7 kts 304°
2026-04-15 07:14 -27.41327 151.73450 1355 ft 12 kts
2026-04-15 07:15 -27.41243 151.73457 1373 ft 15 kts
2026-04-15 07:15 -27.41166 151.73471 1358 ft 1 kts 14°
2026-04-15 07:15 -27.41138 151.73481 1363 ft 9 kts 15°
2026-04-15 07:15 -27.41070 151.73500 1370 ft 11 kts 300°
2026-04-15 07:16 -27.41030 151.73276 1434 ft 62 kts 282°
2026-04-15 07:16 -27.40936 151.72706 1538 ft 83 kts 284°
2026-04-15 07:16 -27.40746 151.72109 1765 ft 80 kts 345°
2026-04-15 07:16 -27.40331 151.72475 1798 ft 96 kts 83°
2026-04-15 07:17 -27.40156 151.73247 1875 ft 100 kts 76°
2026-04-15 07:17 -27.40356 151.73878 2094 ft 92 kts 131°
2026-04-15 07:17 -27.40754 151.74480 2203 ft 96 kts 128°
2026-04-15 07:17 -27.41172 151.75060 2344 ft 95 kts 130°
2026-04-15 07:18 -27.41592 151.75604 2556 ft 87 kts 133°
2026-04-15 07:18 -27.42031 151.76137 2597 ft 100 kts 134°
2026-04-15 07:18 -27.42509 151.76718 2683 ft 101 kts 131°
2026-04-15 07:18 -27.42961 151.77365 2672 ft 110 kts 129°
2026-04-15 07:19 -27.43498 151.78031 2618 ft 116 kts 134°
2026-04-15 07:19 -27.44028 151.78700 2652 ft 113 kts 129°
2026-04-15 07:19 -27.44543 151.79371 2638 ft 115 kts 128°
2026-04-15 07:19 -27.45069 151.80032 2692 ft 111 kts 132°
2026-04-15 07:20 -27.45599 151.80666 2679 ft 115 kts 134°
2026-04-15 07:20 -27.46145 151.81326 2678 ft 115 kts 133°
2026-04-15 07:20 -27.46702 151.82007 2588 ft 121 kts 132°
2026-04-15 07:20 -27.47259 151.82714 2564 ft 119 kts 132°
2026-04-15 07:21 -27.47804 151.83391 2582 ft 115 kts 131°
2026-04-15 07:21 -27.48325 151.84065 2618 ft 112 kts 130°
2026-04-15 07:21 -27.48830 151.84744 2563 ft 118 kts 129°
2026-04-15 07:21 -27.49344 151.85458 2574 ft 116 kts 130°
2026-04-15 07:22 -27.49866 151.86144 2573 ft 115 kts 130°
2026-04-15 07:22 -27.50386 151.86843 2539 ft 118 kts 130°
2026-04-15 07:22 -27.50933 151.87545 2480 ft 120 kts 130°
2026-04-15 07:22 -27.51410 151.88189 2549 ft 112 kts 129°
2026-04-15 07:23 -27.51901 151.88866 2589 ft 111 kts 129°
2026-04-15 07:23 -27.52482 151.89399 2658 ft 109 kts 156°
2026-04-15 07:23 -27.53152 151.89762 2679 ft 111 kts 152°
2026-04-15 07:23 -27.53654 151.90410 2414 ft 108 kts 118°
2026-04-15 07:24 -27.53971 151.91095 2180 ft 90 kts 117°
2026-04-15 07:24 -27.54236 151.91676 2179 ft 84 kts 118°
2026-04-15 07:24 -27.54504 151.92280 2362 ft 81 kts 116°
2026-04-15 07:24 -27.54762 151.92739 2681 ft 63 kts 157°
2026-04-15 07:25 -27.55188 151.92521 2611 ft 101 kts 247°
2026-04-15 07:25 -27.54859 151.91966 2587 ft 107 kts 346°
2026-04-15 07:25 -27.54163 151.91698 2598 ft 108 kts 315°
2026-04-15 07:25 -27.53789 151.90935 2568 ft 111 kts 294°
2026-04-15 07:26 -27.53479 151.90143 2532 ft 114 kts 297°
2026-04-15 07:26 -27.53307 151.89265 2478 ft 118 kts 276°
2026-04-15 07:26 -27.53189 151.88336 2381 ft 120 kts 283°
2026-04-15 07:26 -27.52988 151.87458 2429 ft 112 kts 288°
2026-04-15 07:27 -27.52707 151.86651 2406 ft 114 kts 294°
2026-04-15 07:27 -27.52450 151.85790 2351 ft 116 kts 290°
2026-04-15 07:27 -27.52132 151.84951 2309 ft 116 kts 298°
2026-04-15 07:27 -27.51716 151.84163 2249 ft 117 kts 308°
2026-04-15 07:28 -27.51143 151.83487 2138 ft 122 kts 306°
2026-04-15 07:28 -27.50834 151.82651 2158 ft 115 kts 292°
2026-04-15 07:28 -27.50567 151.81802 2137 ft 114 kts 294°
2026-04-15 07:28 -27.50189 151.81043 2185 ft 110 kts 307°
2026-04-15 07:29 -27.49777 151.80337 2295 ft 101 kts 307°
2026-04-15 07:29 -27.49425 151.79662 2370 ft 102 kts 301°
2026-04-15 07:29 -27.49126 151.78903 2315 ft 111 kts 297°
2026-04-15 07:29 -27.48804 151.78079 2254 ft 115 kts 297°
2026-04-15 07:30 -27.48493 151.77258 2261 ft 112 kts 295°
2026-04-15 07:30 -27.48200 151.76457 2281 ft 110 kts 294°
2026-04-15 07:30 -27.47914 151.75653 2260 ft 113 kts 294°
2026-04-15 07:30 -27.47605 151.74823 2244 ft 112 kts 295°
2026-04-15 07:31 -27.47233 151.74081 2277 ft 110 kts 304°
2026-04-15 07:31 -27.46769 151.73407 2294 ft 111 kts 310°
2026-04-15 07:31 -27.46213 151.72787 2239 ft 115 kts 334°
2026-04-15 07:31 -27.45427 151.72553 2124 ft 121 kts 350°
2026-04-15 07:32 -27.44605 151.72390 2094 ft 116 kts 352°
2026-04-15 07:32 -27.43828 151.72276 2145 ft 110 kts 354°
2026-04-15 07:32 -27.43255 151.72693 2106 ft 110 kts 89°
2026-04-15 07:32 -27.43342 151.73544 2137 ft 106 kts 88°
2026-04-15 07:33 -27.43027 151.74281 2115 ft 113 kts 40°
2026-04-15 07:33 -27.42322 151.74716 2016 ft 119 kts 19°
2026-04-15 07:33 -27.41537 151.74762 1949 ft 110 kts 329°
2026-04-15 07:33 -27.41163 151.74107 1621 ft 94 kts 281°
2026-04-15 07:34 -27.41080 151.73573 1408 ft 40 kts 288°
2026-04-15 07:34 -27.41066 151.73491 1367 ft 2 kts 290°
2026-04-15 07:34 -27.41021 151.73212 1416 ft 70 kts 284°
2026-04-15 07:34 -27.40923 151.72585 1577 ft 79 kts 280°
2026-04-15 07:35 -27.40841 151.71959 1769 ft 84 kts 266°
2026-04-15 07:35 -27.41241 151.71662 1970 ft 87 kts 163°
2026-04-15 07:35 -27.41729 151.72139 1955 ft 103 kts 119°
2026-04-15 07:35 -27.41955 151.72931 1958 ft 109 kts 102°
2026-04-15 07:36 -27.42100 151.73765 1993 ft 108 kts 99°
2026-04-15 07:36 -27.42143 151.74561 2173 ft 95 kts 58°
2026-04-15 07:36 -27.41626 151.74958 2199 ft 94 kts 353°
2026-04-15 07:36 -27.41213 151.74431 1803 ft 108 kts 279°
2026-04-15 07:37 -27.41093 151.73715 1510 ft 71 kts 288°
2026-04-15 07:37 -27.41033 151.73310 1365 ft 29 kts 285°
2026-04-15 07:37 -27.41014 151.73203 1356 ft 2 kts 216°
2026-04-15 07:37 -27.41024 151.73261 1362 ft 10 kts 104°
2026-04-15 07:38 -27.41037 151.73357 1369 ft 12 kts 102°
2026-04-15 07:38 -27.41047 151.73424 1371 ft 9 kts 102°
2026-04-15 07:38 -27.41085 151.73491 1368 ft 16 kts 176°
2026-04-15 07:38 -27.41218 151.73463 1367 ft 19 kts 197°
2026-04-15 07:39 -27.41320 151.73444 1352 ft 4 kts 193°
2026-04-15 07:39 -27.41346 151.73439 1353 ft 5 kts 193°
2026-04-15 07:39 -27.41395 151.73467 1356 ft 13 kts 100°
2026-04-15 07:39 -27.41393 151.73509 1348 ft 3 kts 20°
2026-04-15 07:40 -27.41388 151.73509 1347 ft 0 kts 23°